Weather in Aeroport

Russia / Republic of Bashkortostan     54°34′11″N   55°54′06″E
temp.,
°C
wind,
m/s
gust,
m/s
humid.,
%
clouds,
%
prec.,
mm/h
press.,
hPa
HPBL,
m
25 february, thu
thu2523:00−23nnw6139281 0.0 1027318
02:00−26nnw58969 0.0 1029138
05:00−28nw45977 0.0 103177
08:00−29nw23980 0.0 103319
11:00−26wnw11930 0.0 1033124
14:00−22ssw228721 0.0 1032256
17:00−21ssw249111 0.0 1031178
20:00−26s34880 0.0 103128
26 february, fri
fri2623:00−26s34929 0.0 103167
02:00−27s410894 0.0 1029173
05:00−24s5119030 0.0 1028282
08:00−22s5119490 0.1 1026361
11:00−20s6119295 0.1 1025447
14:00−17s61190100 0.1 1023554
17:00−15s61189100 0.1 1021627
20:00−16s6129081 0.1 1019505
27 february, sat
sat2723:00−15s6149084 0.1 1018539
02:00−14sse7159099 0.1 1013568
05:00−12sse91693100 0.6 1008640
08:00−10s91894100 3.3 1003816
11:00−8s111792100 6.1 1001754
14:00−4s9159099 0.3 999585
17:00−1s71293100 0.4 998436
20:000sw5998100 0.4 998416
28 february, sun
sun2823:00−1ssw41096100 0.9 999310
02:00−2ssw41096100 0.3 998324
05:00−2ssw4897100 0.6 998288
08:00−2ssw4897100 0.8 998316
11:00−1ssw4696100 1.3 999390
14:000sw35100100 0.4 1000372
17:000sw2399100 1.0 1001230
20:00−4nnw5896100 0.7 1003221
1 march, mon
mon123:00−9wnw359694 0.9 1006130
02:00−11wnw359692 0.1 1007103
05:00−12w359695 0.4 1010126
08:00−13wnw369698 0.3 1012156
11:00−12wnw359494 0.4 1013275
14:00−11nw4592100 0.1 1015388
17:00−11nw4693100 0.3 1016407
20:00−14nw369698 0.3 1017241